ボアッティーニ彗星

C/2011 L6 ( Boattini )

English version
Home page
Updated on April 6, 2013

---------------------------------------------------------------------

・ プロフィール

発見日 2011年6月8日
発見光度 20.5等
発見者 A. Boattini (Mt. Lemmon)

・ 写真集

・ 軌道要素

Epoch 2011 Feb. 8.0 TT = JDT 2455600.5
T 2011 Jan. 22.94777 TT                                 MPC
q   6.7878713            (2000.0)            P               Q
z  -0.0004470      Peri.  331.61413     -0.45900551     -0.88444233
 +/-0.0000094      Node   214.48366     -0.78444576     +0.35901148
e   1.0030344      Incl.  171.45582     -0.41708368     +0.29811494
From 55 observations 2011 May 28-2012 Apr. 24, mean residual 0".5.

・ 光度変化

        m1 = 8.0 + 5 logΔ + 10.0 log r

---------------------------------------------------------------------

軌道要素はM.P.E.C. 2013-C52に掲載されたものです。
光度グラフはComet for Windowsで作成したものです。

---------------------------------------------------------------------

Copyright(C) Seiichi Yoshida (comet@aerith.net). All rights reserved.